カタログに戻る

THOR ABLESTAR DEB

運用中LEO
NORAD 125·DEBRIS·🇺🇸 United States

打ち上げ Jun 29, 1961 から Cape Canaveral Space Force Station

Loading…

次のパス (今後24時間)

TLE

最新Source: Space-Track

元期: Sep 14, 2026, 21:03 UTC

1 00125U 61015K   26257.87763690  .00000173  00000-0  14533-3 0  9999
2 00125  66.8744  64.6889 0072695 353.5384   6.4759 14.07760675329880

AllMySatでTHOR ABLESTAR DEBをリアルタイム追跡

Download on the App Store